Погода в Порто-Санто-Стефано

Италия     42°26′22″N   11°06′55″E
темп.,
°C
ветер,
м/с
пор.,
м/с
влажн.,
%
обл.,
%
осадки,
мм/ч
давл.,
гПа
погр.,
м
13 мая, чт
чт1323:00+16в456284 0.0 1010206
02:00+15в33695 0.0 1009147
05:00+15в32770 0.0 1008161
08:00+15вюв337771 0.0 1008222
11:00+16ююв457214 0.0 1008428
14:00+17ю44675 0.0 1008290
17:00+17юз910691 0.0 1006587
20:00+17с1011670 0.0 1007469
14 мая, пт
пт1423:00+16в34630 0.0 1009178
02:00+15юв44735 0.0 1010253
05:00+14вюв44761 0.0 1010203
08:00+14юв557896 0.0 1011258
11:00+16ююв7869100 0.0 1011767
14:00+16ююз121380100 0.0 1011892
17:00+14ю101183100 1.3 1011716
20:00+14ююв101187100 4.0 1010850
15 мая, сб
сб1523:00+14в8991100 3.4 1010652
02:00+14св678125 4.4 1010374
05:00+14ссв3378100 0.0 1011269
08:00+14с337894 0.0 1012286
11:00+15сз2373100 0.0 1014400
14:00+16з3374100 0.0 1014436
17:00+16ююз1167100 0.0 1013261
20:00+17ююв5568100 0.0 1012472
16 мая, вс
вс1623:00+16вюв677951 0.0 1011309
02:00+16юв3482100 0.0 1010223
05:00+17ююв5682100 0.0 1009402
08:00+17ююв7787100 0.0 1010484
11:00+17ююв91085100 0.0 1010499
14:00+18ююв101182100 0.0 1010543
17:00+18ююв8107998 0.0 1009338
20:00+18юв688697 0.0 1008223
17 мая, пн
пн1723:00+17юв79895 0.0 1008254
02:00+17юв57895 0.0 1008269
05:00+16всв229080 0.0 100893
08:00+17ююв569031 0.0 1009200
11:00+17ююз447824 0.0 1009250
14:00+18юз2472100 0.0 1009126
17:00+18с7864100 0.0 1009529
20:00+18сз7865100 0.0 1009182